Theta_e
327 334 334 332 336 336 338 345 349 346 342 338 343 348 346 342 342 341 339 337 335 333 331 329 328 329 328 327 328 327 330 328 324 323 324 324 322 319 319 319 318 318 318 317
327 329 335 334 334 336 336 336 337 340 338 337 345 349 345 342 341 340 340 338 336 334 332 331 330 331 330 330 329 329 330 328 326 323 323 323 322 322 319 320 320 319 319 318
327 325 334 336 334 336 336 335 334 337 336 338 350 351 343 340 342 342 338 338 336 333 331 332 333 333 332 332 331 330 331 324 326 324 323 319 324 324 321 322 320 318 319 319
325 324 327 330 333 333 335 333 333 333 333 333 336 354 341 341 344 337 335 336 333 330 330 329 330 332 332 332 332 331 330 327 327 323 320 318 322 323 319 319 319 319 320 319
323 323 324 331 335 332 334 335 336 336 335 334 345 346 346 340 341 338 332 331 331 328 328 329 329 329 329 325 325 325 326 326 322 322 320 318 323 324 321 320 319 319 319 318
322 323 332 335 334 332 332 337 334 335 329 334 344 346 343 344 341 333 329 326 325 325 326 330 330 330 329 328 327 327 326 323 322 322 319 319 322 322 322 319 320 318 317 317
324 324 329 335 336 334 335 336 334 330 329 337 341 345 342 343 336 334 329 324 323 323 322 321 322 323 322 322 322 325 325 324 323 321 321 322 322 322 322 320 319 318 318 317
329 336 334 333 334 337 335 332 329 332 333 332 342 344 340 335 333 330 325 322 323 322 321 321 322 323 321 318 319 318 317 317 320 320 321 319 319 318 316 320 319 319 318 318
336 337 336 335 336 335 334 330 326 328 326 325 340 339 336 335 333 329 325 324 323 323 321 321 321 316 316 314 315 314 314 314 314 321 319 318 318 318 318 319 319 318 317 317
334 339 336 337 336 333 333 329 326 330 334 332 342 344 338 333 330 328 327 324 322 321 315 311 312 314 314 314 315 315 314 313 317 316 315 317 316 315 317 318 318 317 316 316
335 339 339 331 334 330 327 325 329 328 330 333 336 339 333 331 329 325 323 323 321 319 311 310 313 315 314 314 314 313 314 314 313 312 315 315 316 314 314 316 316 318 317 315
334 334 336 333 330 330 329 329 328 330 331 329 331 335 329 328 327 323 323 323 321 319 312 312 314 315 314 313 313 313 314 313 312 311 312 313 314 313 315 314 315 317 316 316
332 335 332 327 333 335 334 329 326 327 329 329 334 338 329 328 326 324 323 321 317 314 313 313 313 314 314 314 313 313 313 312 312 312 311 313 313 313 315 315 315 317 317 315
337 335 333 331 331 329 333 331 326 325 327 327 333 336 331 329 327 324 321 318 314 314 314 313 312 313 315 314 314 314 314 314 313 312 312 312 313 313 315 315 315 317 316 313
334 336 336 332 332 329 327 327 326 326 324 326 332 334 331 327 325 319 316 314 315 314 313 312 312 314 315 316 315 314 314 313 313 313 313 314 314 313 313 314 314 316 315 313
333 338 339 337 334 331 328 327 326 325 325 327 330 332 327 322 319 317 315 314 314 314 314 314 314 316 316 316 316 316 314 313 313 313 313 313 313 312 313 314 314 315 315 314
335 337 337 337 336 336 336 336 329 326 323 326 328 327 321 320 317 315 315 314 315 315 316 315 314 315 315 315 314 313 312 311 310 310 309 310 312 309 311 313 314 314 315 314
338 342 336 338 338 340 338 332 330 329 326 324 325 322 320 317 315 314 314 315 316 316 315 313 313 313 314 312 311 310 310 310 309 307 309 309 310 310 310 312 313 311 311 312
337 338 338 339 339 336 339 338 333 333 331 328 326 322 318 315 315 317 316 316 314 313 314 313 312 313 311 310 309 308 308 308 307 306 308 306 308 310 309 312 312 313 312 311
339 337 336 337 340 342 340 336 332 326 329 326 322 317 315 313 317 316 316 315 314 314 313 312 311 311 309 308 309 308 308 307 307 307 307 307 308 308 310 310 311 312 313 313
341 342 339 337 340 339 336 335 326 328 332 322 317 315 316 317 316 316 314 313 314 313 311 310 312 308 309 307 307 308 306 306 306 306 306 307 307 309 309 309 310 311 313 313
342 339 335 338 340 342 330 330 335 329 322 317 315 317 316 316 316 314 313 314 314 311 310 311 309 308 309 307 306 306 306 305 304 305 306 306 307 306 306 308 309 311 312 312
342 336 332 336 337 330 328 325 322 318 317 316 317 316 316 316 314 312 312 313 311 310 311 310 309 308 307 307 305 304 304 305 304 305 306 305 304 305 305 305 308 308 311 311
341 339 336 336 334 327 323 321 318 317 317 316 315 316 316 315 312 311 313 312 310 311 311 310 308 307 307 306 305 303 304 305 305 305 305 305 303 303 304 306 307 307 309 309
333 332 330 334 331 328 323 321 318 316 315 316 315 314 312 311 311 311 313 312 310 310 311 309 307 308 306 307 305 304 304 304 305 306 305 304 302 304 304 305 307 308 308 308
332 333 329 332 326 327 325 322 318 316 317 315 315 313 312 311 310 313 312 311 309 309 311 310 308 307 307 306 306 305 304 303 305 304 304 305 303 302 304 304 305 307 309 309
Wind_Speed
7 4 7 13 13 7 8 20 13 20 16 5 13 15 11 7 8 9 8 9 12 13 24 26 26 26 26 25 24 25 20 19 11 12 12 14 15 10 10 8 7 7 10 8
8 8 15 17 8 10 9 3 4 5 7 5 14 15 9 6 4 9 12 8 10 13 13 19 24 27 26 23 24 21 13 10 15 13 6 11 23 20 14 15 10 11 10 9
9 11 14 16 6 4 3 1 4 8 5 5 19 7 3 4 2 15 10 12 10 10 8 11 16 20 19 22 20 19 21 11 14 11 12 21 22 25 15 13 18 15 13 11
11 10 9 9 10 8 4 6 9 12 6 5 6 5 5 7 2 4 3 6 4 7 3 9 10 10 13 15 13 13 14 12 16 17 19 22 26 19 16 19 11 8 10 14
10 10 13 4 8 13 4 20 18 12 11 4 2 7 3 6 4 2 5 6 6 6 8 7 11 13 9 3 2 3 8 10 11 20 22 20 25 22 16 9 12 10 15 13
9 12 3 3 4 10 11 7 15 22 4 3 4 6 3 3 2 6 3 8 10 7 6 11 10 6 6 4 2 0 6 8 9 14 17 24 27 27 18 16 15 14 14 13
9 14 4 6 4 9 6 2 4 6 5 2 6 10 4 8 8 7 9 8 7 7 8 7 8 11 12 11 6 2 3 5 7 10 16 15 21 21 19 24 22 18 15 13
4 7 1 2 3 6 7 2 2 4 3 5 6 5 3 6 10 10 9 9 7 8 6 5 4 4 7 9 14 14 12 13 9 6 6 9 11 15 22 23 19 21 13 9
3 6 1 5 4 2 4 2 4 2 6 3 5 4 3 6 8 7 10 8 7 6 6 5 4 13 13 9 7 8 9 11 11 6 5 8 10 13 17 21 16 20 18 15
4 6 8 2 6 8 8 4 3 4 3 3 3 6 5 6 6 8 7 7 6 4 7 6 9 9 8 9 8 12 13 13 8 9 9 6 9 16 17 15 19 22 19 17
5 3 6 8 3 3 5 3 4 2 2 1 2 3 6 7 6 9 7 6 5 6 5 6 7 11 13 16 15 14 15 16 13 16 12 13 13 14 17 19 22 20 18 17
5 2 3 6 5 5 1 2 4 4 5 2 3 2 8 8 10 7 7 3 2 2 5 4 6 6 7 5 6 10 9 11 13 17 17 17 16 20 17 20 21 22 20 21
3 3 3 8 3 3 2 3 4 3 2 4 1 4 6 7 6 5 3 2 2 2 5 2 4 5 2 3 6 6 5 9 8 12 19 23 20 21 23 22 25 18 17 16
1 2 5 5 7 2 2 6 5 6 3 3 2 6 6 7 7 8 7 5 4 2 4 4 5 8 9 7 5 6 9 10 12 20 24 19 23 21 23 27 24 16 12 11
3 1 4 7 11 1 6 6 4 6 3 3 4 8 8 8 6 8 7 5 4 6 6 6 5 7 12 15 14 13 14 20 23 20 19 20 18 22 25 27 20 14 13 13
2 2 5 7 12 10 4 5 3 4 7 4 11 8 7 6 8 7 5 5 6 6 6 7 9 16 15 11 13 13 15 18 20 20 21 17 18 22 26 25 21 17 13 14
2 1 3 4 7 8 4 4 14 3 7 4 3 6 7 6 6 4 2 7 5 7 8 7 7 11 12 15 18 18 18 19 18 18 22 20 14 24 25 25 20 15 13 15
2 1 1 5 5 4 3 3 8 8 12 6 7 8 8 8 4 4 7 7 9 8 7 7 13 15 17 17 17 17 17 16 18 22 24 24 23 23 24 21 19 12 12 14
1 2 2 3 2 5 7 5 6 7 4 10 7 7 8 7 9 7 7 10 8 7 10 12 14 13 15 14 15 16 16 18 19 23 22 27 28 21 24 20 23 17 15 11
8 7 4 3 1 2 3 2 8 6 2 6 8 7 8 7 4 1 7 8 9 14 14 13 12 13 14 15 15 14 16 19 22 24 26 25 24 24 20 21 22 19 15 13
0 2 4 1 1 5 5 10 2 1 3 5 5 6 7 5 4 3 6 8 13 14 14 13 15 16 13 13 14 13 15 19 21 23 24 23 25 21 19 21 22 22 11 9
3 3 2 2 6 1 4 5 2 4 2 4 5 6 7 6 8 8 7 7 13 14 15 11 15 12 10 11 14 15 15 19 22 22 23 23 23 22 24 21 20 22 12 8
3 5 5 6 3 4 6 7 4 3 3 5 6 4 7 8 7 7 6 7 11 12 12 14 13 11 9 10 13 14 15 17 18 21 22 20 22 23 23 22 18 17 18 11
1 3 3 3 3 7 7 6 5 5 6 6 4 9 7 6 7 6 6 6 9 10 9 11 10 8 12 5 10 11 15 15 19 20 20 18 21 23 25 24 17 11 16 13
2 4 2 4 3 2 6 6 7 6 6 2 10 10 8 8 6 5 5 7 9 7 5 9 5 3 7 7 9 9 11 14 16 18 17 16 19 18 22 21 20 11 11 6
3 3 3 1 4 4 2 5 8 7 9 9 9 8 11 10 6 6 5 7 4 4 3 4 3 4 3 9 10 8 11 16 15 16 17 13 14 18 18 19 25 12 7 5
Wind_Direction
266 123 208 230 217 236 25 158 196 226 245 218 182 128 152 117 151 179 183 192 194 210 220 217 216 223 228 237 238 236 236 226 245 266 297 329 303 309 296 282 273 283 301 286
313 222 208 228 258 205 161 194 241 226 242 156 117 133 91 124 232 204 196 207 212 223 215 213 217 217 222 232 232 235 249 236 250 261 242 267 273 282 282 276 268 277 287 286
276 270 183 221 158 76 243 219 274 221 216 163 115 98 77 237 225 264 187 181 211 219 174 193 194 201 223 232 238 242 237 273 257 239 238 242 260 271 272 256 266 271 265 260
280 290 318 335 23 12 356 357 343 321 308 246 164 138 111 288 242 58 113 161 187 126 116 115 129 205 217 236 244 256 252 255 236 233 229 243 261 266 268 280 272 283 281 295
281 305 314 305 47 19 318 10 337 295 295 255 57 93 139 191 208 193 96 145 148 106 131 138 165 198 192 117 99 220 231 230 257 243 233 250 260 265 263 289 264 274 287 288
284 293 76 134 43 15 340 36 288 286 298 9 155 110 190 170 180 153 61 78 100 145 112 161 189 168 167 164 184 66 216 232 249 246 252 255 261 261 277 290 283 295 285 281
285 273 257 91 343 337 332 180 300 346 356 276 131 65 204 185 142 140 209 125 139 86 86 71 50 87 80 73 64 78 171 350 264 249 263 285 270 269 268 274 281 272 268 257
282 324 359 9 244 239 278 121 182 308 314 260 102 122 198 171 178 215 147 122 101 90 94 109 108 97 83 30 44 62 44 29 9 331 321 326 308 291 251 247 272 264 255 259
4 325 46 210 224 212 286 321 243 248 266 335 110 45 342 226 219 184 116 104 111 132 169 171 38 66 80 72 69 65 64 35 10 35 28 7 335 309 272 270 261 273 262 262
298 316 302 211 229 248 215 230 352 349 1 321 105 165 187 186 220 123 111 101 73 18 66 66 71 58 62 34 29 58 40 20 45 45 2 5 355 335 302 265 261 271 275 255
7 38 310 4 318 74 14 357 30 117 127 244 21 320 191 181 115 90 71 52 48 0 80 55 46 49 53 44 51 40 39 50 32 12 25 345 346 354 336 303 282 270 269 260
340 258 305 295 116 77 344 96 95 101 310 262 182 277 88 105 101 138 150 182 41 309 99 72 50 39 67 51 55 31 44 22 7 357 351 358 344 339 327 330 314 272 253 252
289 333 346 330 350 59 1 138 137 108 71 269 165 207 130 106 104 93 78 321 287 70 102 79 37 329 289 119 57 21 38 7 13 9 356 339 341 342 330 327 329 288 253 245
116 240 194 220 249 32 289 300 138 145 119 294 117 140 153 164 178 183 191 192 85 8 82 59 3 329 27 67 38 21 24 28 2 342 334 341 338 346 335 335 331 294 260 254
122 264 312 324 324 6 318 306 40 65 353 93 94 131 167 176 173 127 147 116 64 61 42 0 343 37 45 60 42 26 7 355 344 340 339 342 347 352 342 340 336 299 283 270
131 294 327 310 291 264 232 291 223 171 224 151 116 112 145 103 86 87 98 78 73 47 6 19 38 43 36 37 20 19 19 9 1 350 351 348 350 356 353 348 336 335 286 295
107 88 13 282 334 329 291 349 13 109 66 80 110 163 114 92 94 98 148 94 75 44 60 44 48 35 39 33 39 31 18 7 7 360 352 346 352 352 351 349 339 347 357 349
138 13 200 258 347 285 201 339 35 353 21 3 96 106 117 122 114 98 84 85 73 70 58 41 32 26 60 44 34 17 8 11 4 354 350 349 344 348 347 349 342 336 337 325
193 107 327 41 320 285 123 19 115 225 3 11 76 75 93 95 82 29 46 82 89 82 63 44 24 68 63 42 21 12 7 9 1 357 357 347 354 343 345 349 349 331 316 315
77 90 108 348 298 301 331 258 239 328 192 40 50 51 84 61 82 297 63 80 73 64 56 45 26 80 50 26 12 30 20 10 357 349 345 343 348 345 342 349 353 345 329 316
202 136 164 117 201 273 246 248 302 29 236 48 50 86 74 86 163 137 95 78 76 70 49 23 78 64 50 42 25 21 20 4 350 346 349 353 352 345 350 347 356 360 357 21
86 96 142 73 243 161 358 52 322 188 95 72 67 80 75 65 60 67 65 69 61 52 31 21 92 63 61 36 34 20 11 359 359 350 349 353 352 358 352 352 351 13 15 26
57 167 182 201 208 109 73 116 95 94 105 85 96 99 85 80 71 69 65 73 64 46 34 71 66 51 31 45 27 2 348 349 347 347 347 359 3 357 353 343 343 2 13 355
125 159 12 71 170 126 128 132 112 64 102 90 76 100 90 82 71 63 64 73 63 42 37 79 72 38 12 40 14 9 345 338 342 344 343 349 357 358 358 0 344 356 4 353
265 45 263 127 81 169 145 141 146 128 116 88 71 77 74 74 58 67 72 77 61 26 33 102 86 41 357 355 338 344 335 344 344 344 341 346 348 353 358 358 0 338 351 354
344 5 54 32 350 98 84 121 109 79 84 75 78 69 65 67 58 46 76 101 53 324 320 127 164 278 301 337 345 341 330 348 348 350 347 336 342 0 358 357 2 9 32 9